owner,sensor,date,latitude,longitude,air_pressure(mBar),qcFlag 
COMPS,ioos:station:USF.COMPS:C13:1,2019-03-17T15:55:00Z,26.0630,-83.0730,1019.83,1111122 
COMPS,ioos:station:USF.COMPS:C13:1,2019-03-17T16:35:00Z,26.0630,-83.0730,1019.8,1111122 
COMPS,ioos:station:USF.COMPS:C13:1,2019-03-17T17:05:00Z,26.0630,-83.0730,1019.34,1111122 
COMPS,ioos:station:USF.COMPS:C13:1,2019-03-17T17:35:00Z,26.0630,-83.0730,1018.89,1111122 
COMPS,ioos:station:USF.COMPS:C13:1,2019-03-17T18:05:00Z,26.0630,-83.0730,1018.32,1111122 
COMPS,ioos:station:USF.COMPS:C13:1,2019-03-17T18:35:00Z,26.0630,-83.0730,1018.25,1111122 
COMPS,ioos:station:USF.COMPS:C13:1,2019-03-17T19:05:00Z,26.0630,-83.0730,1018.05,1111122 
COMPS,ioos:station:USF.COMPS:C13:1,2019-03-17T19:35:00Z,26.0630,-83.0730,1017.41,1111122 
COMPS,ioos:station:USF.COMPS:C13:1,2019-03-17T20:05:00Z,26.0630,-83.0730,1016.91,1111122 
COMPS,ioos:station:USF.COMPS:C13:1,2019-03-17T20:35:00Z,26.0630,-83.0730,1016.4,1111122 
COMPS,ioos:station:USF.COMPS:C13:1,2019-03-17T21:05:00Z,26.0630,-83.0730,1016.2,1111122 
COMPS,ioos:station:USF.COMPS:C13:1,2019-03-17T21:35:00Z,26.0630,-83.0730,1015.87,1111122 
COMPS,ioos:station:USF.COMPS:C13:1,2019-03-17T22:05:00Z,26.0630,-83.0730,1016.08,1111122 
COMPS,ioos:station:USF.COMPS:C13:1,2019-03-17T22:35:00Z,26.0630,-83.0730,1016.54,1111122 
COMPS,ioos:station:USF.COMPS:C13:1,2019-03-17T23:05:00Z,26.0630,-83.0730,1017.0,1111122 
COMPS,ioos:station:USF.COMPS:C13:1,2019-03-17T23:35:00Z,26.0630,-83.0730,1017.32,1111122 
COMPS,ioos:station:USF.COMPS:C13:1,2019-03-18T00:05:00Z,26.0630,-83.0730,1017.58,1111122 
COMPS,ioos:station:USF.COMPS:C13:1,2019-03-18T00:35:00Z,26.0630,-83.0730,1017.71,1111122 
COMPS,ioos:station:USF.COMPS:C13:1,2019-03-18T02:05:00Z,26.0630,-83.0730,1018.4,1111122 
COMPS,ioos:station:USF.COMPS:C13:1,2019-03-18T02:35:00Z,26.0630,-83.0730,1018.71,1111122 
COMPS,ioos:station:USF.COMPS:C13:1,2019-03-18T03:05:00Z,26.0630,-83.0730,1018.52,1111122 
COMPS,ioos:station:USF.COMPS:C13:1,2019-03-18T03:35:00Z,26.0630,-83.0730,1018.54,1111122 
COMPS,ioos:station:USF.COMPS:C13:1,2019-03-18T04:05:00Z,26.0630,-83.0730,1018.46,1111122 
COMPS,ioos:station:USF.COMPS:C13:1,2019-03-18T04:35:00Z,26.0630,-83.0730,1018.75,1111122 
COMPS,ioos:station:USF.COMPS:C13:1,2019-03-18T06:05:00Z,26.0630,-83.0730,1018.15,1111122 
COMPS,ioos:station:USF.COMPS:C13:1,2019-03-18T06:35:00Z,26.0630,-83.0730,1017.66,1111122 
COMPS,ioos:station:USF.COMPS:C13:1,2019-03-18T07:05:00Z,26.0630,-83.0730,1017.08,1111122 
COMPS,ioos:station:USF.COMPS:C13:1,2019-03-18T07:35:00Z,26.0630,-83.0730,1016.93,1111122 
COMPS,ioos:station:USF.COMPS:C13:1,2019-03-18T08:05:00Z,26.0630,-83.0730,1016.69,1111122 
COMPS,ioos:station:USF.COMPS:C13:1,2019-03-18T08:35:00Z,26.0630,-83.0730,1016.55,1111122 
COMPS,ioos:station:USF.COMPS:C13:1,2019-03-18T09:05:00Z,26.0630,-83.0730,1016.64,1111122 
COMPS,ioos:station:USF.COMPS:C13:1,2019-03-18T09:35:00Z,26.0630,-83.0730,1016.69,1111122 
COMPS,ioos:station:USF.COMPS:C13:1,2019-03-18T10:05:00Z,26.0630,-83.0730,1016.51,1111122 
COMPS,ioos:station:USF.COMPS:C13:1,2019-03-18T10:35:00Z,26.0630,-83.0730,1016.77,1111122 
COMPS,ioos:station:USF.COMPS:C13:1,2019-03-18T11:05:00Z,26.0630,-83.0730,1016.74,1111122 
COMPS,ioos:station:USF.COMPS:C13:1,2019-03-18T11:35:00Z,26.0630,-83.0730,1016.99,1111122 
COMPS,ioos:station:USF.COMPS:C13:1,2019-03-18T12:05:00Z,26.0630,-83.0730,1017.28,1111122 
COMPS,ioos:station:USF.COMPS:C13:1,2019-03-18T12:35:00Z,26.0630,-83.0730,1017.72,1111122 
COMPS,ioos:station:USF.COMPS:C13:1,2019-03-18T13:05:00Z,26.0630,-83.0730,1018.22,1111122 
COMPS,ioos:station:USF.COMPS:C13:1,2019-03-18T13:35:00Z,26.0630,-83.0730,1018.2,1111122 
COMPS,ioos:station:USF.COMPS:C13:1,2019-03-18T14:05:00Z,26.0630,-83.0730,1018.59,1111122 
COMPS,ioos:station:USF.COMPS:C13:1,2019-03-18T14:35:00Z,26.0630,-83.0730,1018.93,1111122 
COMPS,ioos:station:USF.COMPS:C13:1,2019-03-18T15:05:00Z,26.0630,-83.0730,1019.05,1111122 
COMPS,ioos:station:USF.COMPS:C13:1,2019-03-18T15:35:00Z,26.0630,-83.0730,1019.26,1111122 
COMPS,ioos:station:USF.COMPS:C13:1,2019-03-18T16:05:00Z,26.0630,-83.0730,1019.34,1111122 
COMPS,ioos:station:USF.COMPS:C13:1,2019-03-18T16:35:00Z,26.0630,-83.0730,1019.3,1111122 
COMPS,ioos:station:USF.COMPS:C13:1,2019-03-18T17:05:00Z,26.0630,-83.0730,1019.17,1111122 
COMPS,ioos:station:USF.COMPS:C13:1,2019-03-18T17:35:00Z,26.0630,-83.0730,1018.83,1111122 
COMPS,ioos:station:USF.COMPS:C13:1,2019-03-18T18:05:00Z,26.0630,-83.0730,1018.39,1111122 
COMPS,ioos:station:USF.COMPS:C13:1,2019-03-18T18:35:00Z,26.0630,-83.0730,1017.87,1111122 
COMPS,ioos:station:USF.COMPS:C13:1,2019-03-18T19:05:00Z,26.0630,-83.0730,1017.67,1111122 
COMPS,ioos:station:USF.COMPS:C13:1,2019-03-18T19:35:00Z,26.0630,-83.0730,1017.25,1111122 
COMPS,ioos:station:USF.COMPS:C13:1,2019-03-18T20:05:00Z,26.0630,-83.0730,1016.91,1111122 
COMPS,ioos:station:USF.COMPS:C13:1,2019-03-18T20:35:00Z,26.0630,-83.0730,1016.37,1111122 
COMPS,ioos:station:USF.COMPS:C13:1,2019-03-18T21:05:00Z,26.0630,-83.0730,1016.15,1111122 
COMPS,ioos:station:USF.COMPS:C13:1,2019-03-18T21:35:00Z,26.0630,-83.0730,1016.1,1111122 
COMPS,ioos:station:USF.COMPS:C13:1,2019-03-18T22:05:00Z,26.0630,-83.0730,1016.06,1111122 
COMPS,ioos:station:USF.COMPS:C13:1,2019-03-18T22:35:00Z,26.0630,-83.0730,1016.03,1111122 
COMPS,ioos:station:USF.COMPS:C13:1,2019-03-18T23:05:00Z,26.0630,-83.0730,1016.26,1111122 
COMPS,ioos:station:USF.COMPS:C13:1,2019-03-18T23:35:00Z,26.0630,-83.0730,1016.53,1111122 
COMPS,ioos:station:USF.COMPS:C13:1,2019-03-19T01:05:00Z,26.0630,-83.0730,1017.52,1111122 
COMPS,ioos:station:USF.COMPS:C13:1,2019-03-19T01:35:00Z,26.0630,-83.0730,1017.49,1111122 
COMPS,ioos:station:USF.COMPS:C13:1,2019-03-19T02:05:00Z,26.0630,-83.0730,1017.93,1111122 
COMPS,ioos:station:USF.COMPS:C13:1,2019-03-19T02:35:00Z,26.0630,-83.0730,1018.13,1111122 
COMPS,ioos:station:USF.COMPS:C13:1,2019-03-19T03:05:00Z,26.0630,-83.0730,1018.76,1111122 
COMPS,ioos:station:USF.COMPS:C13:1,2019-03-19T03:35:00Z,26.0630,-83.0730,1018.84,1111122 
COMPS,ioos:station:USF.COMPS:C13:1,2019-03-19T04:05:00Z,26.0630,-83.0730,1018.92,1111122 
COMPS,ioos:station:USF.COMPS:C13:1,2019-03-19T04:35:00Z,26.0630,-83.0730,1018.62,1111122 
COMPS,ioos:station:USF.COMPS:C13:1,2019-03-19T05:05:00Z,26.0630,-83.0730,1018.86,1111122 
COMPS,ioos:station:USF.COMPS:C13:1,2019-03-19T05:35:00Z,26.0630,-83.0730,1018.64,1111122 
COMPS,ioos:station:USF.COMPS:C13:1,2019-03-19T06:05:00Z,26.0630,-83.0730,1018.92,1111122 
COMPS,ioos:station:USF.COMPS:C13:1,2019-03-19T06:35:00Z,26.0630,-83.0730,1018.35,1111122 
COMPS,ioos:station:USF.COMPS:C13:1,2019-03-19T07:05:00Z,26.0630,-83.0730,1017.25,1111122 
COMPS,ioos:station:USF.COMPS:C13:1,2019-03-19T07:35:00Z,26.0630,-83.0730,1017.39,1111122 
COMPS,ioos:station:USF.COMPS:C13:1,2019-03-19T08:05:00Z,26.0630,-83.0730,1017.25,1111122 
COMPS,ioos:station:USF.COMPS:C13:1,2019-03-19T08:35:00Z,26.0630,-83.0730,1016.98,1111122 
COMPS,ioos:station:USF.COMPS:C13:1,2019-03-19T09:05:00Z,26.0630,-83.0730,1016.95,1111122 
COMPS,ioos:station:USF.COMPS:C13:1,2019-03-19T09:35:00Z,26.0630,-83.0730,1016.84,1111122 
COMPS,ioos:station:USF.COMPS:C13:1,2019-03-19T10:05:00Z,26.0630,-83.0730,1016.73,1111122 
COMPS,ioos:station:USF.COMPS:C13:1,2019-03-19T10:35:00Z,26.0630,-83.0730,1016.93,1111122 
COMPS,ioos:station:USF.COMPS:C13:1,2019-03-19T11:05:00Z,26.0630,-83.0730,1017.06,1111122 
COMPS,ioos:station:USF.COMPS:C13:1,2019-03-19T11:35:00Z,26.0630,-83.0730,1017.75,1111122 
COMPS,ioos:station:USF.COMPS:C13:1,2019-03-19T12:05:00Z,26.0630,-83.0730,1018.19,1111122 
COMPS,ioos:station:USF.COMPS:C13:1,2019-03-19T12:35:00Z,26.0630,-83.0730,1018.01,1111122 
COMPS,ioos:station:USF.COMPS:C13:1,2019-03-19T13:05:00Z,26.0630,-83.0730,1018.26,1111122 
COMPS,ioos:station:USF.COMPS:C13:1,2019-03-19T13:35:00Z,26.0630,-83.0730,1018.07,1111122 
COMPS,ioos:station:USF.COMPS:C13:1,2019-03-19T14:05:00Z,26.0630,-83.0730,1018.11,1111122 
COMPS,ioos:station:USF.COMPS:C13:1,2019-03-19T14:35:00Z,26.0630,-83.0730,1017.53,1111122 
COMPS,ioos:station:USF.COMPS:C13:1,2019-03-19T15:05:00Z,26.0630,-83.0730,1017.33,1111122 
COMPS,ioos:station:USF.COMPS:C13:1,2019-03-19T15:35:00Z,26.0630,-83.0730,1018.08,1111122 
COMPS,ioos:station:USF.COMPS:C13:1,2019-03-19T16:05:00Z,26.0630,-83.0730,1018.51,1111122 
COMPS,ioos:station:USF.COMPS:C13:1,2019-03-19T16:35:00Z,26.0630,-83.0730,1018.32,1111122 
COMPS,ioos:station:USF.COMPS:C13:1,2019-03-19T17:05:00Z,26.0630,-83.0730,1018.25,1111122 
COMPS,ioos:station:USF.COMPS:C13:1,2019-03-19T17:35:00Z,26.0630,-83.0730,1018.01,1111122 
COMPS,ioos:station:USF.COMPS:C13:1,2019-03-19T18:05:00Z,26.0630,-83.0730,1017.95,1111122 
COMPS,ioos:station:USF.COMPS:C13:1,2019-03-19T18:35:00Z,26.0630,-83.0730,1017.48,1111122 
COMPS,ioos:station:USF.COMPS:C13:1,2019-03-19T19:05:00Z,26.0630,-83.0730,1017.48,1111122 
COMPS,ioos:station:USF.COMPS:C13:1,2019-03-19T19:35:00Z,26.0630,-83.0730,1017.22,1111122 
COMPS,ioos:station:USF.COMPS:C13:1,2019-03-19T20:05:00Z,26.0630,-83.0730,1016.8,1111122 
COMPS,ioos:station:USF.COMPS:C13:1,2019-03-19T20:35:00Z,26.0630,-83.0730,1016.73,1111122 
COMPS,ioos:station:USF.COMPS:C13:1,2019-03-19T21:05:00Z,26.0630,-83.0730,1016.49,1111122 
COMPS,ioos:station:USF.COMPS:C13:1,2019-03-19T21:35:00Z,26.0630,-83.0730,1016.7,1111122 
COMPS,ioos:station:USF.COMPS:C13:1,2019-03-19T22:05:00Z,26.0630,-83.0730,1016.92,1111122 
COMPS,ioos:station:USF.COMPS:C13:1,2019-03-19T22:35:00Z,26.0630,-83.0730,1017.12,1111122 
COMPS,ioos:station:USF.COMPS:C13:1,2019-03-19T23:05:00Z,26.0630,-83.0730,1017.33,1111122 
COMPS,ioos:station:USF.COMPS:C13:1,2019-03-19T23:35:00Z,26.0630,-83.0730,1017.11,1111122 
COMPS,ioos:station:USF.COMPS:C13:1,2019-03-20T00:05:00Z,26.0630,-83.0730,1016.95,1111122 
COMPS,ioos:station:USF.COMPS:C13:1,2019-03-20T00:35:00Z,26.0630,-83.0730,1017.2,1111122 
COMPS,ioos:station:USF.COMPS:C13:1,2019-03-20T02:05:00Z,26.0630,-83.0730,1018.32,1111122 
COMPS,ioos:station:USF.COMPS:C13:1,2019-03-20T02:35:00Z,26.0630,-83.0730,1018.64,1111122 
COMPS,ioos:station:USF.COMPS:C13:1,2019-03-20T03:05:00Z,26.0630,-83.0730,1018.5,1111122 
COMPS,ioos:station:USF.COMPS:C13:1,2019-03-20T03:35:00Z,26.0630,-83.0730,1017.81,1111122 
COMPS,ioos:station:USF.COMPS:C13:1,2019-03-20T04:05:00Z,26.0630,-83.0730,1017.48,1111122 
COMPS,ioos:station:USF.COMPS:C13:1,2019-03-20T04:35:00Z,26.0630,-83.0730,1017.39,1111122 
COMPS,ioos:station:USF.COMPS:C13:1,2019-03-20T05:05:00Z,26.0630,-83.0730,1017.68,1111122 
COMPS,ioos:station:USF.COMPS:C13:1,2019-03-20T05:35:00Z,26.0630,-83.0730,1017.69,1111122 
COMPS,ioos:station:USF.COMPS:C13:1,2019-03-20T06:05:00Z,26.0630,-83.0730,1017.49,1111122 
COMPS,ioos:station:USF.COMPS:C13:1,2019-03-20T06:35:00Z,26.0630,-83.0730,1017.15,1111122 
COMPS,ioos:station:USF.COMPS:C13:1,2019-03-20T07:05:00Z,26.0630,-83.0730,1016.81,1111122 
COMPS,ioos:station:USF.COMPS:C13:1,2019-03-20T07:35:00Z,26.0630,-83.0730,1016.56,1111122 
COMPS,ioos:station:USF.COMPS:C13:1,2019-03-20T08:05:00Z,26.0630,-83.0730,1016.48,1111122 
COMPS,ioos:station:USF.COMPS:C13:1,2019-03-20T08:35:00Z,26.0630,-83.0730,1016.31,1111122 
COMPS,ioos:station:USF.COMPS:C13:1,2019-03-20T10:05:00Z,26.0630,-83.0730,1016.15,1111122 
COMPS,ioos:station:USF.COMPS:C13:1,2019-03-20T10:35:00Z,26.0630,-83.0730,1016.48,1111122 
COMPS,ioos:station:USF.COMPS:C13:1,2019-03-20T11:05:00Z,26.0630,-83.0730,1016.81,1111122 
COMPS,ioos:station:USF.COMPS:C13:1,2019-03-20T11:35:00Z,26.0630,-83.0730,1016.92,1111122 
COMPS,ioos:station:USF.COMPS:C13:1,2019-03-20T12:05:00Z,26.0630,-83.0730,1017.05,1111122 
COMPS,ioos:station:USF.COMPS:C13:1,2019-03-20T12:35:00Z,26.0630,-83.0730,1017.21,1111122 
COMPS,ioos:station:USF.COMPS:C13:1,2019-03-20T13:05:00Z,26.0630,-83.0730,1017.51,1111122 
COMPS,ioos:station:USF.COMPS:C13:1,2019-03-20T13:35:00Z,26.0630,-83.0730,1018.07,1111122 
COMPS,ioos:station:USF.COMPS:C13:1,2019-03-20T14:05:00Z,26.0630,-83.0730,1018.19,1111122 
COMPS,ioos:station:USF.COMPS:C13:1,2019-03-20T14:35:00Z,26.0630,-83.0730,1018.41,1111122 
COMPS,ioos:station:USF.COMPS:C13:1,2019-03-20T15:05:00Z,26.0630,-83.0730,1018.56,1111122 
COMPS,ioos:station:USF.COMPS:C13:1,2019-03-20T15:35:00Z,26.0630,-83.0730,1018.58,1111122 
COMPS,ioos:station:USF.COMPS:C13:1,2019-03-20T16:05:00Z,26.0630,-83.0730,1018.61,1111122 
COMPS,ioos:station:USF.COMPS:C13:1,2019-03-20T16:35:00Z,26.0630,-83.0730,1018.39,1111122 
COMPS,ioos:station:USF.COMPS:C13:1,2019-03-20T17:05:00Z,26.0630,-83.0730,1018.14,1111122 
COMPS,ioos:station:USF.COMPS:C13:1,2019-03-20T17:35:00Z,26.0630,-83.0730,1017.82,1111122 
COMPS,ioos:station:USF.COMPS:C13:1,2019-03-20T18:05:00Z,26.0630,-83.0730,1017.39,1111122 
COMPS,ioos:station:USF.COMPS:C13:1,2019-03-20T18:35:00Z,26.0630,-83.0730,1017.12,1111122 
COMPS,ioos:station:USF.COMPS:C13:1,2019-03-20T19:05:00Z,26.0630,-83.0730,1016.93,1111122 
COMPS,ioos:station:USF.COMPS:C13:1,2019-03-20T19:35:00Z,26.0630,-83.0730,1016.67,1111122 
COMPS,ioos:station:USF.COMPS:C13:1,2019-03-20T20:05:00Z,26.0630,-83.0730,1016.38,1111122 
COMPS,ioos:station:USF.COMPS:C13:1,2019-03-20T20:35:00Z,26.0630,-83.0730,1016.39,1111122 
COMPS,ioos:station:USF.COMPS:C13:1,2019-03-20T21:05:00Z,26.0630,-83.0730,1016.38,1111122 
COMPS,ioos:station:USF.COMPS:C13:1,2019-03-20T21:35:00Z,26.0630,-83.0730,1016.29,1111122 
COMPS,ioos:station:USF.COMPS:C13:1,2019-03-20T22:05:00Z,26.0630,-83.0730,1016.18,1111122 
COMPS,ioos:station:USF.COMPS:C13:1,2019-03-20T22:35:00Z,26.0630,-83.0730,1016.19,1111122 
COMPS,ioos:station:USF.COMPS:C13:1,2019-03-20T23:05:00Z,26.0630,-83.0730,1016.19,1111122 
COMPS,ioos:station:USF.COMPS:C13:1,2019-03-20T23:35:00Z,26.0630,-83.0730,1016.27,1111122 
COMPS,ioos:station:USF.COMPS:C13:1,2019-03-21T00:05:00Z,26.0630,-83.0730,1016.49,1111122 
COMPS,ioos:station:USF.COMPS:C13:1,2019-03-21T00:35:00Z,26.0630,-83.0730,1016.63,1111122 
COMPS,ioos:station:USF.COMPS:C13:1,2019-03-21T01:05:00Z,26.0630,-83.0730,1016.92,1111122 
COMPS,ioos:station:USF.COMPS:C13:1,2019-03-21T01:35:00Z,26.0630,-83.0730,1017.13,1111122 
COMPS,ioos:station:USF.COMPS:C13:1,2019-03-21T02:05:00Z,26.0630,-83.0730,1017.48,1111122 
COMPS,ioos:station:USF.COMPS:C13:1,2019-03-21T02:35:00Z,26.0630,-83.0730,1017.83,1111122 
COMPS,ioos:station:USF.COMPS:C13:1,2019-03-21T03:05:00Z,26.0630,-83.0730,1017.62,1111122 
COMPS,ioos:station:USF.COMPS:C13:1,2019-03-21T03:35:00Z,26.0630,-83.0730,1017.62,1111122 
COMPS,ioos:station:USF.COMPS:C13:1,2019-03-21T04:05:00Z,26.0630,-83.0730,1017.56,1111122 
COMPS,ioos:station:USF.COMPS:C13:1,2019-03-21T04:35:00Z,26.0630,-83.0730,1017.43,1111122 
COMPS,ioos:station:USF.COMPS:C13:1,2019-03-21T05:05:00Z,26.0630,-83.0730,1017.24,1111122 
COMPS,ioos:station:USF.COMPS:C13:1,2019-03-21T05:35:00Z,26.0630,-83.0730,1017.26,1111122 
COMPS,ioos:station:USF.COMPS:C13:1,2019-03-21T06:05:00Z,26.0630,-83.0730,1017.01,1111122 
COMPS,ioos:station:USF.COMPS:C13:1,2019-03-21T06:35:00Z,26.0630,-83.0730,1016.79,1111122 
COMPS,ioos:station:USF.COMPS:C13:1,2019-03-21T07:05:00Z,26.0630,-83.0730,1016.43,1111122 
COMPS,ioos:station:USF.COMPS:C13:1,2019-03-21T07:35:00Z,26.0630,-83.0730,1016.23,1111122 
COMPS,ioos:station:USF.COMPS:C13:1,2019-03-21T08:05:00Z,26.0630,-83.0730,1016.08,1111122 
COMPS,ioos:station:USF.COMPS:C13:1,2019-03-21T08:35:00Z,26.0630,-83.0730,1016.01,1111122 
COMPS,ioos:station:USF.COMPS:C13:1,2019-03-21T09:05:00Z,26.0630,-83.0730,1016.03,1111122 
COMPS,ioos:station:USF.COMPS:C13:1,2019-03-21T09:35:00Z,26.0630,-83.0730,1016.2,1111122 
COMPS,ioos:station:USF.COMPS:C13:1,2019-03-21T10:05:00Z,26.0630,-83.0730,1016.4,1111122 
COMPS,ioos:station:USF.COMPS:C13:1,2019-03-21T10:35:00Z,26.0630,-83.0730,1016.55,1111122 
COMPS,ioos:station:USF.COMPS:C13:1,2019-03-21T11:05:00Z,26.0630,-83.0730,1016.71,1111122 
COMPS,ioos:station:USF.COMPS:C13:1,2019-03-21T11:35:00Z,26.0630,-83.0730,1016.99,1111122 
COMPS,ioos:station:USF.COMPS:C13:1,2019-03-21T12:05:00Z,26.0630,-83.0730,1017.31,1111122 
COMPS,ioos:station:USF.COMPS:C13:1,2019-03-21T12:35:00Z,26.0630,-83.0730,1017.68,1111122 
COMPS,ioos:station:USF.COMPS:C13:1,2019-03-21T13:05:00Z,26.0630,-83.0730,1018.02,1111122 
COMPS,ioos:station:USF.COMPS:C13:1,2019-03-21T13:35:00Z,26.0630,-83.0730,1018.32,1111122 
COMPS,ioos:station:USF.COMPS:C13:1,2019-03-21T14:05:00Z,26.0630,-83.0730,1018.55,1111122 
COMPS,ioos:station:USF.COMPS:C13:1,2019-03-21T14:35:00Z,26.0630,-83.0730,1018.63,1111122 
COMPS,ioos:station:USF.COMPS:C13:1,2019-03-21T15:05:00Z,26.0630,-83.0730,1018.75,1111122 
COMPS,ioos:station:USF.COMPS:C13:1,2019-03-21T15:35:00Z,26.0630,-83.0730,1018.76,1111122 
COMPS,ioos:station:USF.COMPS:C13:1,2019-03-21T16:05:00Z,26.0630,-83.0730,1018.53,1111122 
COMPS,ioos:station:USF.COMPS:C13:1,2019-03-21T16:35:00Z,26.0630,-83.0730,1018.41,1111122 
COMPS,ioos:station:USF.COMPS:C13:1,2019-03-21T17:05:00Z,26.0630,-83.0730,1018.24,1111122 
COMPS,ioos:station:USF.COMPS:C13:1,2019-03-21T17:35:00Z,26.0630,-83.0730,1017.89,1111122 
COMPS,ioos:station:USF.COMPS:C13:1,2019-03-21T18:05:00Z,26.0630,-83.0730,1017.57,1111122 
COMPS,ioos:station:USF.COMPS:C13:1,2019-03-21T18:35:00Z,26.0630,-83.0730,1017.29,1111122 
COMPS,ioos:station:USF.COMPS:C13:1,2019-03-21T19:05:00Z,26.0630,-83.0730,1016.99,1111122 
COMPS,ioos:station:USF.COMPS:C13:1,2019-03-21T19:35:00Z,26.0630,-83.0730,1016.75,1111122 
COMPS,ioos:station:USF.COMPS:C13:1,2019-03-21T20:05:00Z,26.0630,-83.0730,1016.48,1111122 
COMPS,ioos:station:USF.COMPS:C13:1,2019-03-21T20:35:00Z,26.0630,-83.0730,1016.22,1111122 
COMPS,ioos:station:USF.COMPS:C13:1,2019-03-21T21:05:00Z,26.0630,-83.0730,1016.15,1111122 
COMPS,ioos:station:USF.COMPS:C13:1,2019-03-21T21:35:00Z,26.0630,-83.0730,1016.12,1111122 
COMPS,ioos:station:USF.COMPS:C13:1,2019-03-21T22:05:00Z,26.0630,-83.0730,1016.0,1111122 
COMPS,ioos:station:USF.COMPS:C13:1,2019-03-21T22:35:00Z,26.0630,-83.0730,1016.14,1111122 
COMPS,ioos:station:USF.COMPS:C13:1,2019-03-21T23:05:00Z,26.0630,-83.0730,1016.17,1111122 
COMPS,ioos:station:USF.COMPS:C13:1,2019-03-21T23:35:00Z,26.0630,-83.0730,1016.25,1111122 
COMPS,ioos:station:USF.COMPS:C13:1,2019-03-22T00:05:00Z,26.0630,-83.0730,1016.44,1111122 
COMPS,ioos:station:USF.COMPS:C13:1,2019-03-22T00:35:00Z,26.0630,-83.0730,1016.55,1111122 
COMPS,ioos:station:USF.COMPS:C13:1,2019-03-22T02:05:00Z,26.0630,-83.0730,1017.35,1111122 
COMPS,ioos:station:USF.COMPS:C13:1,2019-03-22T02:35:00Z,26.0630,-83.0730,1017.59,1111122 
COMPS,ioos:station:USF.COMPS:C13:1,2019-03-22T03:05:00Z,26.0630,-83.0730,1017.8,1111122 
COMPS,ioos:station:USF.COMPS:C13:1,2019-03-22T03:35:00Z,26.0630,-83.0730,1017.99,1111122 
COMPS,ioos:station:USF.COMPS:C13:1,2019-03-22T04:05:00Z,26.0630,-83.0730,1018.0,1111122 
COMPS,ioos:station:USF.COMPS:C13:1,2019-03-22T04:35:00Z,26.0630,-83.0730,1017.94,1111122 
COMPS,ioos:station:USF.COMPS:C13:1,2019-03-22T05:05:00Z,26.0630,-83.0730,1018.04,1111122 
COMPS,ioos:station:USF.COMPS:C13:1,2019-03-22T05:35:00Z,26.0630,-83.0730,1018.11,1111122 
COMPS,ioos:station:USF.COMPS:C13:1,2019-03-22T06:05:00Z,26.0630,-83.0730,1018.04,1111122 
COMPS,ioos:station:USF.COMPS:C13:1,2019-03-22T06:35:00Z,26.0630,-83.0730,1017.93,1111122 
COMPS,ioos:station:USF.COMPS:C13:1,2019-03-22T07:05:00Z,26.0630,-83.0730,1017.88,1111122 
COMPS,ioos:station:USF.COMPS:C13:1,2019-03-22T07:35:00Z,26.0630,-83.0730,1017.93,1111122 
COMPS,ioos:station:USF.COMPS:C13:1,2019-03-22T08:05:00Z,26.0630,-83.0730,1017.66,1111122 
COMPS,ioos:station:USF.COMPS:C13:1,2019-03-22T08:35:00Z,26.0630,-83.0730,1017.59,1111122 
COMPS,ioos:station:USF.COMPS:C13:1,2019-03-22T09:05:00Z,26.0630,-83.0730,1017.66,1111122 
COMPS,ioos:station:USF.COMPS:C13:1,2019-03-22T09:35:00Z,26.0630,-83.0730,1017.83,1111122 
COMPS,ioos:station:USF.COMPS:C13:1,2019-03-22T10:05:00Z,26.0630,-83.0730,1017.84,1111122 
COMPS,ioos:station:USF.COMPS:C13:1,2019-03-22T10:35:00Z,26.0630,-83.0730,1017.99,1111122 
COMPS,ioos:station:USF.COMPS:C13:1,2019-03-22T11:05:00Z,26.0630,-83.0730,1018.38,1111122 
COMPS,ioos:station:USF.COMPS:C13:1,2019-03-22T11:35:00Z,26.0630,-83.0730,1018.67,1111122 
COMPS,ioos:station:USF.COMPS:C13:1,2019-03-22T12:05:00Z,26.0630,-83.0730,1018.98,1111122 
COMPS,ioos:station:USF.COMPS:C13:1,2019-03-22T12:35:00Z,26.0630,-83.0730,1019.32,1111122 
COMPS,ioos:station:USF.COMPS:C13:1,2019-03-22T13:05:00Z,26.0630,-83.0730,1019.74,1111122 
COMPS,ioos:station:USF.COMPS:C13:1,2019-03-22T13:35:00Z,26.0630,-83.0730,1020.12,1111122 
COMPS,ioos:station:USF.COMPS:C13:1,2019-03-22T14:05:00Z,26.0630,-83.0730,1020.49,1111122 
COMPS,ioos:station:USF.COMPS:C13:1,2019-03-22T14:35:00Z,26.0630,-83.0730,1020.58,1111122 
COMPS,ioos:station:USF.COMPS:C13:1,2019-03-22T15:05:00Z,26.0630,-83.0730,1020.85,1111122 
COMPS,ioos:station:USF.COMPS:C13:1,2019-03-22T15:35:00Z,26.0630,-83.0730,1021.07,1111122 
COMPS,ioos:station:USF.COMPS:C13:1,2019-03-22T16:05:00Z,26.0630,-83.0730,1021.14,1111122 
COMPS,ioos:station:USF.COMPS:C13:1,2019-03-22T16:35:00Z,26.0630,-83.0730,1021.08,1111122 
COMPS,ioos:station:USF.COMPS:C13:1,2019-03-22T17:05:00Z,26.0630,-83.0730,1021.06,1111122 
COMPS,ioos:station:USF.COMPS:C13:1,2019-03-22T17:35:00Z,26.0630,-83.0730,1020.55,1111122 
COMPS,ioos:station:USF.COMPS:C13:1,2019-03-22T18:05:00Z,26.0630,-83.0730,1020.23,1111122 
COMPS,ioos:station:USF.COMPS:C13:1,2019-03-22T18:35:00Z,26.0630,-83.0730,1019.98,1111122 
COMPS,ioos:station:USF.COMPS:C13:1,2019-03-22T19:05:00Z,26.0630,-83.0730,1019.87,1111122 
COMPS,ioos:station:USF.COMPS:C13:1,2019-03-22T19:35:00Z,26.0630,-83.0730,1019.54,1111122 
COMPS,ioos:station:USF.COMPS:C13:1,2019-03-22T20:05:00Z,26.0630,-83.0730,1019.09,1111122 
COMPS,ioos:station:USF.COMPS:C13:1,2019-03-22T20:35:00Z,26.0630,-83.0730,1018.92,1111122 
COMPS,ioos:station:USF.COMPS:C13:1,2019-03-22T21:05:00Z,26.0630,-83.0730,1018.95,1111122 
COMPS,ioos:station:USF.COMPS:C13:1,2019-03-22T21:35:00Z,26.0630,-83.0730,1018.94,1111122 
COMPS,ioos:station:USF.COMPS:C13:1,2019-03-22T22:05:00Z,26.0630,-83.0730,1018.96,1111122 
COMPS,ioos:station:USF.COMPS:C13:1,2019-03-22T22:35:00Z,26.0630,-83.0730,1019.03,1111122 
COMPS,ioos:station:USF.COMPS:C13:1,2019-03-22T23:05:00Z,26.0630,-83.0730,1019.1,1111122 
COMPS,ioos:station:USF.COMPS:C13:1,2019-03-22T23:35:00Z,26.0630,-83.0730,1019.21,1111122 
COMPS,ioos:station:USF.COMPS:C13:1,2019-03-23T00:05:00Z,26.0630,-83.0730,1019.31,1111122 
COMPS,ioos:station:USF.COMPS:C13:1,2019-03-23T00:35:00Z,26.0630,-83.0730,1019.42,1111122 
COMPS,ioos:station:USF.COMPS:C13:1,2019-03-23T01:05:00Z,26.0630,-83.0730,1019.6,1111122 
COMPS,ioos:station:USF.COMPS:C13:1,2019-03-23T01:35:00Z,26.0630,-83.0730,1019.89,1111122 
COMPS,ioos:station:USF.COMPS:C13:1,2019-03-23T02:05:00Z,26.0630,-83.0730,1020.14,1111122 
COMPS,ioos:station:USF.COMPS:C13:1,2019-03-23T02:35:00Z,26.0630,-83.0730,1020.43,1111122 
COMPS,ioos:station:USF.COMPS:C13:1,2019-03-23T03:05:00Z,26.0630,-83.0730,1020.77,1111122 
COMPS,ioos:station:USF.COMPS:C13:1,2019-03-23T03:35:00Z,26.0630,-83.0730,1020.74,1111122 
COMPS,ioos:station:USF.COMPS:C13:1,2019-03-23T04:05:00Z,26.0630,-83.0730,1020.7,1111122 
COMPS,ioos:station:USF.COMPS:C13:1,2019-03-23T04:35:00Z,26.0630,-83.0730,1020.66,1111122 
COMPS,ioos:station:USF.COMPS:C13:1,2019-03-23T05:05:00Z,26.0630,-83.0730,1020.4,1111122 
COMPS,ioos:station:USF.COMPS:C13:1,2019-03-23T05:35:00Z,26.0630,-83.0730,1020.18,1111122 
COMPS,ioos:station:USF.COMPS:C13:1,2019-03-23T06:05:00Z,26.0630,-83.0730,1019.92,1111122 
COMPS,ioos:station:USF.COMPS:C13:1,2019-03-23T06:35:00Z,26.0630,-83.0730,1019.81,1111122 
COMPS,ioos:station:USF.COMPS:C13:1,2019-03-23T07:05:00Z,26.0630,-83.0730,1019.76,1111122 
COMPS,ioos:station:USF.COMPS:C13:1,2019-03-23T07:35:00Z,26.0630,-83.0730,1019.59,1111122 
COMPS,ioos:station:USF.COMPS:C13:1,2019-03-23T08:05:00Z,26.0630,-83.0730,1019.49,1111122 
COMPS,ioos:station:USF.COMPS:C13:1,2019-03-23T08:35:00Z,26.0630,-83.0730,1019.42,1111122 
COMPS,ioos:station:USF.COMPS:C13:1,2019-03-23T09:05:00Z,26.0630,-83.0730,1019.41,1111122 
COMPS,ioos:station:USF.COMPS:C13:1,2019-03-23T09:35:00Z,26.0630,-83.0730,1019.62,1111122 
COMPS,ioos:station:USF.COMPS:C13:1,2019-03-23T10:05:00Z,26.0630,-83.0730,1019.88,1111122 
COMPS,ioos:station:USF.COMPS:C13:1,2019-03-23T10:35:00Z,26.0630,-83.0730,1020.1,1111122 